Location: Korczew
(51.3586°N, 19.4491°E)
Time: 07:24:23
(UTC+00:00)

Cosmos 2333 Rocket - Pass Details

Date: 19 May 2025
Orbit: 840 x 862 km, 70.8° (Epoch: 16 June)

Event Time Altitude Azimuth Distance (km) Brightness Sun altitude
Rises 20:20:10 0° 329° (NNW) 3,445 7.5 -12.5°
Reaches altitude 10° 20:23:09 10° 344° (NNW) 2,502 6.0 -12.7°
Maximum altitude 20:27:45 24° 37° (NE) 1,704 4.0 -13.1°
Drops below altitude 10° 20:32:19 10° 90° (E) 2,482 4.3 -13.5°
Enters shadow 20:33:55 - 99° (E) 2,972 4.7 -13.6°
